Погода в Притеречном

Россия / Республика Северная Осетия — Алания     43°44′33″N   44°18′14″E
темп.,
°C
ветер,
м/с
пор.,
м/с
влажн.,
%
обл.,
%
осадки,
мм/ч
давл.,
гПа
погр.,
м
17 сентября, пт
пт1700:00+19ссв4737100 0.0 1016543
03:00+18св3634100 0.0 1016400
06:00+16св494899 0.0 1016403
09:00+17всв5849100 0.1 1016892
12:00+19в5749100 0.0 10161360
15:00+20в1351100 0.0 1015665
18:00+19ссв1154100 0.0 101523
21:00+16в35645 0.0 101698
18 сентября, сб
сб1800:00+15в37808 0.0 1016177
03:00+13в358081 0.0 1016114
06:00+13в348236 0.0 101672
09:00+17в346599 0.0 1017536
12:00+22в44525 0.0 10151135
15:00+24в55465 0.0 10141495
18:00+20всв49585 0.0 1014193
21:00+17в41069100 0.0 1015220
19 сентября, вс
вс1900:00+16в410785 0.0 1015291
03:00+14в4884100 0.0 1015214
06:00+13в368895 0.0 1015151
09:00+18в34695 0.0 1015561
12:00+24в345396 0.0 10131000
15:00+26в334482 0.0 10121386
18:00+22св3356100 0.0 101232
21:00+20в495386 0.0 1014280
20 сентября, пн
пн2000:00+17в356683 0.0 101399
03:00+16юв22755 0.0 101323
06:00+15ююз118153 0.0 101311
09:00+21зсз1158100 0.0 1013354
12:00+26ссв3343100 0.0 1012927
15:00+27св3338100 0.0 10101387
18:00+23в334986 0.0 101139
21:00+18юз3386100 2.7 101241
21 сентября, вт
вт2100:00+18з3386100 3.0 101349
03:00+17сз35885 4.3 1015128
06:00+15зсз119518 0.7 101714
09:00+20зсз117672 1.3 1018531
12:00+23ссз3263100 0.2 10171203
15:00+23сз2260100 0.3 10171040
18:00+20с4674100 0.4 1018249
21:00+18с2683100 1.1 1019251